Tracking 31028 objects as of 17-Jul-2025
HD Live streaming from Space Station
objects crossing your sky now

DELTA 1 DEB

Track DELTA 1 DEB now!
10-day predictions


NORAD ID: 21287
Int'l Code: 1975-052Y
Perigee: 1,101.0 km
Apogee: 1,298.5 km
Inclination: 99.7 °
Period: 109.3 minutes
Semi major axis: 7570 km
RCS: 0.2374 m2 (medium)
Launch date: June 12, 1975
Source: United States (US)
Launch site: AIR FORCE WESTERN TEST RANGE (AFWTR)

Note: This is SATELLITE DEBRIS
Your satellite tracking list
Your tracking list is empty




NASA's NSSDC Master Catalog

Two Line Element Set (TLE):
1 21287U 75052Y   25198.43223249  .00000010  00000-0  12431-3 0  9998
2 21287  99.6870   4.9574 0130391 322.3092  91.0065 13.17934530645448
Source of the keplerian elements: AFSPC